Simultaneous Nadir Overpasses (SNOs) Predictions

Prediction of SNOs between METOP-A and TERRA Satellite Orbit:

Table of predicted SNOs for the next 14.0 days since TLE Epoch: 9/7/2012
Index Date (METOP-A) Time (METOP-A) METOP-A Lat,Lon Date (TERRA) Time (TERRA) TERRA Lat,Lon Distance(km) Time Diff (sec)
1 09/10/2012 05:01:05 -81.31, -28.54 09/10/2012 05:01:41 -81.30, -28.43 1.90 36
2 09/10/2012 05:51:44 81.32, 139.60 09/10/2012 05:51:06 81.33, 139.66 1.37 38
3 09/13/2012 00:35:26 -81.31, 38.23 09/13/2012 00:35:54 -81.33, 38.38 2.88 28
4 09/13/2012 01:26:06 81.32,-154.06 09/13/2012 01:25:20 81.33,-153.93 2.33 46
5 09/15/2012 20:09:48 -81.31, 104.49 09/15/2012 20:10:08 -81.32, 104.64 2.63 20
6 09/15/2012 21:00:28 81.32, -87.84 09/15/2012 20:59:34 81.32, -87.70 2.38 54
7 09/18/2012 15:44:08
